Theta_e
318 317 317 317 316 314 313 312 312 311 310 322 321 327 316 315 314 323 325 326 322 313 307 313 310 306 308 310 309 308 305 304 307 306 308 305 307 307 306 306 305 306 305 305 304 304 302 303 302 303 304 304 307 308 309 310 308 308 306 309 309 315 303 300 301 304 306 309 311 311 310 309 306 307 308 306 302 304 303 303 306 302 304 302 302 301 310
318 317 317 316 315 313 313 312 312 311 310 314 318 322 315 316 316 318 324 326 322 310 303 305 306 307 309 308 307 308 307 307 307 305 307 306 306 305 306 306 307 305 307 306 303 306 300 303 303 302 305 304 309 308 309 309 307 307 306 304 309 302 306 301 298 299 301 304 307 306 308 307 304 304 307 308 307 306 306 306 308 302 303 304 300 296 307
317 317 317 316 315 313 312 312 312 312 311 312 318 318 319 319 321 318 319 322 318 307 309 308 307 306 306 306 304 305 305 307 308 308 307 308 307 307 305 306 307 306 308 306 306 307 304 301 305 304 305 304 308 309 309 308 307 311 311 315 311 304 304 303 296 294 293 293 294 296 299 302 305 307 307 308 307 306 304 299 304 296 305 305 301 306 314
317 318 317 316 315 314 312 312 312 311 311 309 320 325 318 315 308 311 313 314 312 312 314 312 309 307 307 304 306 306 304 307 308 307 307 307 308 308 306 309 307 306 305 304 303 304 306 302 303 304 304 305 306 308 309 308 308 314 314 312 310 305 306 305 303 300 298 300 303 306 308 306 302 304 305 306 308 308 307 305 303 298 303 302 310 312 315
318 318 318 316 315 313 312 312 312 311 310 309 315 324 320 316 308 309 306 312 310 308 311 308 309 306 309 305 305 303 305 305 305 307 303 308 307 307 306 306 303 304 304 303 303 304 304 306 305 304 304 305 307 308 308 308 311 314 309 312 308 306 302 305 305 304 305 305 305 306 307 303 305 305 304 306 306 308 306 302 300 314 303 298 309 316 311
318 319 319 317 315 313 313 312 311 310 309 309 318 321 319 307 313 314 316 307 304 305 307 309 308 309 308 307 307 305 305 304 302 307 307 307 307 302 306 307 306 305 304 305 301 303 303 303 301 305 305 304 306 305 307 306 312 313 307 310 306 304 300 304 304 304 305 306 307 306 306 305 306 306 306 305 306 306 303 304 307 307 303 303 311 314 311
319 319 319 318 315 314 314 312 311 310 308 310 325 320 318 318 316 314 319 309 310 310 310 311 308 307 307 307 306 304 304 303 306 306 305 305 306 305 302 304 305 305 307 305 304 304 300 301 304 305 303 304 305 303 305 307 309 308 307 309 311 306 301 304 304 303 304 305 305 306 305 306 306 305 306 307 306 307 306 306 308 307 310 309 309 317 316
318 319 319 319 316 315 314 312 311 310 308 319 327 328 316 317 317 314 316 314 311 312 311 310 308 306 308 305 305 305 304 304 305 307 304 304 306 307 303 304 306 307 308 307 304 306 306 305 303 307 307 305 306 303 304 304 308 308 306 307 310 304 301 304 303 301 302 305 306 306 306 305 304 306 307 307 307 308 309 310 309 311 312 311 310 316 316
318 319 319 318 316 315 314 313 312 310 309 327 326 324 323 322 325 325 315 310 310 311 310 309 307 305 307 304 306 305 305 305 307 306 307 305 305 304 305 307 306 305 307 306 306 309 309 309 308 311 307 302 306 302 307 308 304 306 305 306 307 306 303 305 303 299 299 304 304 305 305 305 303 304 305 308 306 305 308 308 311 310 308 312 313 312 313
318 319 319 319 316 314 314 313 312 310 311 325 328 323 328 325 329 328 320 310 314 308 310 309 307 303 307 307 307 305 306 308 306 304 307 307 308 307 307 308 306 307 304 306 308 310 310 310 310 310 310 310 310 310 309 308 306 305 305 308 303 305 303 301 301 297 298 303 304 303 303 302 299 302 304 307 308 309 310 311 313 312 313 310 309 311 319
317 318 319 318 316 315 315 314 313 311 315 316 318 324 327 321 320 324 322 311 312 310 308 307 306 307 308 308 308 308 308 307 307 304 304 306 307 308 307 307 305 308 307 309 313 313 312 312 312 312 310 309 308 308 309 309 308 307 306 305 306 307 304 301 304 297 298 302 302 303 299 293 296 308 311 310 307 308 308 309 311 312 314 312 315 317 320
316 318 319 318 317 315 314 314 313 311 311 316 318 320 328 328 324 326 319 309 307 310 308 305 306 308 306 309 309 308 307 306 307 309 307 306 306 307 308 307 308 306 312 316 315 314 313 312 310 310 308 307 308 308 308 306 308 312 309 305 305 304 304 302 305 299 298 301 302 297 292 292 306 314 312 311 311 311 312 311 313 313 315 316 315 318 319
316 317 318 318 317 315 314 314 313 312 311 315 317 319 326 331 322 322 322 315 310 310 309 306 309 309 310 310 308 308 309 309 309 309 308 309 306 308 309 307 306 309 313 312 312 310 305 304 306 306 306 307 307 307 307 307 307 309 309 310 306 304 303 305 302 301 301 298 297 289 292 305 310 310 311 313 313 314 312 310 312 314 315 317 316 318 319
316 317 318 318 318 316 315 314 314 314 312 312 315 319 323 330 319 321 323 314 310 314 312 308 309 308 308 308 310 310 309 309 310 308 308 307 309 308 308 311 312 313 312 311 307 308 304 303 301 302 300 302 304 302 304 307 307 307 307 309 308 307 306 304 299 305 296 297 296 295 304 305 306 307 309 309 307 308 307 304 308 314 314 315 316 318 320
315 317 318 318 318 316 315 314 314 314 313 311 316 320 325 333 325 323 327 323 310 311 311 308 307 308 308 309 309 309 307 309 306 307 311 310 309 311 312 313 314 313 311 308 306 306 303 304 299 297 299 297 293 297 304 301 308 308 307 307 308 310 302 305 301 300 302 297 295 298 295 293 301 309 312 314 313 313 315 311 308 314 316 317 316 317 319
315 316 317 318 318 317 315 315 314 314 313 310 317 321 323 335 330 327 326 323 317 307 309 312 312 310 309 309 310 308 309 308 309 309 308 308 311 311 312 314 315 314 311 307 309 308 305 300 299 298 295 297 300 299 299 303 302 307 307 307 306 308 309 307 302 300 299 298 294 294 292 300 306 309 311 313 314 313 314 308 303 312 315 317 317 316 318
315 316 317 318 318 317 316 315 314 314 313 311 313 317 322 332 329 325 324 326 316 308 314 314 314 313 311 310 310 309 311 308 312 307 307 308 310 311 312 314 315 313 313 308 307 303 303 302 301 301 302 303 300 298 302 301 300 305 307 307 304 303 305 304 300 299 299 297 294 292 301 301 307 310 311 313 315 313 308 296 297 310 315 317 317 317 317
314 315 317 317 318 317 316 315 314 314 313 312 314 316 320 329 333 331 328 325 317 313 317 316 313 311 308 312 310 312 312 311 311 314 309 310 310 309 311 308 309 312 311 306 309 302 302 302 298 298 296 305 304 302 294 302 298 299 300 304 302 303 303 302 298 301 299 299 296 301 302 308 310 310 312 315 313 307 297 292 304 316 317 317 318 318 319
314 315 316 317 318 318 317 315 314 314 314 310 315 321 326 334 332 333 326 324 320 313 318 321 318 315 316 318 315 314 313 312 313 307 307 307 309 313 310 310 313 307 309 305 308 304 302 303 307 303 301 302 305 298 304 298 300 306 304 301 300 300 300 300 303 299 299 299 296 297 302 309 311 312 313 316 308 297 299 308 318 318 318 319 319 318 320
314 315 315 316 317 317 317 315 314 314 314 311 313 316 321 329 333 336 325 323 321 315 316 315 315 313 316 314 313 312 312 310 311 308 309 305 315 314 309 303 310 310 310 309 303 306 304 301 301 306 301 302 304 306 302 303 307 304 305 305 299 302 299 300 299 301 301 301 296 293 289 306 313 312 312 316 307 306 314 317 318 319 318 318 319 319 320
314 314 315 316 317 317 316 315 314 314 314 313 311 318 323 335 332 335 333 329 326 316 314 318 318 318 317 316 316 315 313 310 311 308 311 312 318 313 300 305 309 308 307 308 302 302 304 306 306 305 308 303 308 307 300 304 304 308 307 305 303 308 299 300 303 304 296 297 296 294 303 310 314 314 306 311 314 317 319 317 315 318 319 318 319 319 320
314 314 315 316 317 317 316 315 314 313 314 314 311 320 322 330 332 334 333 332 328 318 319 321 321 319 319 319 319 318 316 315 315 315 312 313 317 311 311 315 313 311 313 313 308 307 308 306 308 303 301 304 307 300 306 299 298 305 310 306 296 311 307 307 299 306 302 301 305 309 312 313 315 315 316 317 319 320 319 318 317 317 317 321 319 318 320
314 315 315 316 317 317 316 315 314 313 313 314 314 320 320 325 328 336 335 328 331 326 324 321 320 319 318 318 319 320 320 319 319 319 319 316 312 310 309 312 311 315 315 317 311 309 308 307 304 306 304 306 303 303 305 303 300 304 302 308 307 312 311 312 307 306 310 311 312 312 313 314 314 316 317 316 318 319 320 318 317 318 319 320 318 319 320
315 315 316 316 316 316 315 314 313 313 313 314 314 317 320 326 329 332 330 327 323 316 317 321 315 310 313 314 317 320 320 319 318 319 322 323 313 310 313 316 317 314 315 320 319 312 310 309 308 307 301 307 308 303 299 299 301 304 303 305 307 311 311 308 302 310 304 297 311 311 311 313 315 314 317 317 317 318 319 319 318 319 320 319 320 321 321
314 315 316 316 316 316 315 314 313 313 313 314 315 320 323 326 333 331 325 320 315 314 307 311 311 317 319 320 321 318 318 319 320 319 315 318 321 313 312 317 322 318 316 316 317 312 311 305 307 306 301 311 309 300 308 303 303 308 301 305 305 305 313 306 305 306 304 306 311 312 314 314 315 315 314 313 316 318 319 319 320 320 320 320 320 320 320
314 315 316 315 316 315 315 314 313 313 314 314 314 318 322 326 333 334 330 330 328 321 309 306 312 319 321 317 316 317 320 322 320 320 320 320 320 322 320 320 316 319 319 319 315 311 311 310 310 308 304 306 313 304 304 308 307 311 304 307 310 311 310 301 306 304 308 311 312 312 314 314 314 313 315 315 315 316 317 317 319 319 319 319 320 321 320
314 315 315 315 315 315 315 314 313 313 314 314 316 320 324 329 333 329 325 326 319 310 311 307 312 316 316 315 317 319 319 321 318 317 315 317 317 318 319 319 318 318 317 315 314 313 312 310 307 307 309 309 311 308 309 307 307 305 304 309 312 307 302 307 306 302 301 303 308 312 305 306 311 314 315 315 316 316 316 317 316 317 317 318 318 320 321
314 314 315 315 315 315 314 314 314 313 313 314 317 323 327 329 333 330 330 330 326 316 312 311 312 317 319 315 317 319 317 321 321 320 319 318 319 318 317 317 320 316 315 313 308 307 306 304 306 312 312 312 304 302 308 308 308 304 303 307 311 308 309 306 303 303 303 310 313 314 313 312 313 313 315 316 317 315 314 314 315 316 317 318 318 318 319
314 314 314 314 314 314 314 314 314 314 314 313 321 325 327 331 333 328 326 330 333 324 321 317 317 316 306 313 317 318 320 321 319 319 319 318 318 319 318 319 319 316 315 313 313 313 309 311 314 311 311 317 306 304 308 302 301 299 307 312 312 313 314 313 312 311 312 314 315 315 313 310 313 315 315 316 317 315 313 314 316 317 317 318 318 319 318
314 314 314 314 314 314 314 314 314 314 314 317 323 325 319 320 329 327 323 327 332 330 317 312 307 308 318 315 313 318 316 320 320 319 319 319 319 319 318 319 316 317 317 315 313 308 311 310 311 313 315 315 305 308 303 303 301 308 314 313 314 313 312 314 313 313 311 316 316 315 315 314 315 316 317 317 317 315 314 314 315 316 317 318 318 318 319
313 314 314 314 314 314 314 314 314 314 314 321 323 317 313 309 322 325 320 326 334 329 322 318 311 316 313 319 319 316 317 319 319 318 319 319 318 318 318 319 315 317 314 312 308 311 310 306 309 311 310 314 308 305 303 302 301 305 311 313 311 313 316 315 314 315 316 317 317 316 315 315 316 316 315 315 314 316 315 316 317 318 318 318 318 319 319
313 313 313 314 313 314 314 314 314 315 318 321 322 320 322 319 323 323 322 322 332 327 318 310 310 310 310 313 316 321 319 319 320 319 318 319 318 320 318 318 318 317 316 313 314 309 306 313 312 312 309 308 308 302 303 302 300 306 311 312 314 314 314 315 315 315 314 316 314 312 312 313 316 313 311 314 315 316 315 316 316 316 318 319 319 320 319
313 313 313 313 314 314 314 314 314 315 317 318 314 314 314 314 314 317 321 329 329 324 320 312 306 312 308 315 318 318 320 319 318 318 317 320 320 318 315 317 316 313 315 313 305 305 314 310 311 308 313 315 305 303 302 301 309 312 314 313 314 313 315 315 316 317 316 315 315 311 310 310 314 316 316 316 316 315 314 315 313 315 316 316 316 317 318
313 313 313 313 314 314 314 314 314 313 313 316 319 319 325 318 320 314 324 328 328 322 318 312 310 307 308 317 311 317 321 315 315 317 313 318 323 315 316 315 316 311 312 306 315 313 312 310 307 309 312 309 308 303 298 306 312 314 313 314 314 313 315 314 314 313 313 315 315 317 316 317 317 317 316 314 314 315 317 315 314 312 313 313 313 313 314
313 313 314 314 314 314 314 313 317 321 320 320 321 328 325 311 313 317 322 329 316 311 312 313 313 307 305 309 306 313 322 316 314 316 311 317 321 314 317 310 312 305 310 316 310 308 307 307 310 307 305 311 305 295 299 307 311 312 313 313 313 313 313 311 311 314 315 315 314 312 314 314 313 312 312 310 312 313 312 313 314 312 311 311 312 313 313
313 313 314 314 313 314 318 320 319 321 319 318 323 325 317 318 316 333 332 335 329 317 309 310 310 307 306 304 303 315 320 313 317 317 316 318 315 319 317 313 308 311 320 312 307 309 306 312 308 301 308 303 300 303 306 308 310 312 312 312 313 312 313 312 313 313 314 313 314 314 313 313 312 311 311 311 312 312 311 311 312 312 311 312 312 312 314
313 314 314 313 316 320 317 319 322 321 322 325 324 321 317 324 330 331 331 326 330 330 316 313 308 308 309 308 313 317 316 308 315 313 314 313 311 317 313 311 305 312 310 309 308 306 311 315 308 302 303 300 306 312 313 312 313 313 312 314 315 314 314 313 315 314 312 311 312 311 312 311 310 310 308 309 310 310 309 309 310 310 309 310 311 311 312
314 313 314 318 318 315 314 317 321 326 321 318 319 319 322 318 313 316 317 313 318 320 315 313 308 312 317 310 307 320 314 312 316 309 316 315 312 311 315 310 310 310 303 305 307 314 314 310 307 303 304 309 312 315 315 315 316 317 316 315 316 315 315 315 314 313 310 308 308 309 309 309 308 310 309 308 309 308 309 310 310 311 311 311 310 311 311
312 315 318 319 318 314 313 321 328 317 327 323 321 317 313 315 314 309 309 311 314 310 313 310 307 311 311 309 312 321 314 315 312 310 308 315 309 306 313 304 311 309 302 303 308 316 304 306 305 304 302 308 309 313 316 316 317 316 317 317 317 317 316 315 315 313 311 310 310 310 310 309 308 310 311 310 309 309 310 309 309 310 310 310 310 312 310
317 316 316 317 316 321 325 322 318 321 322 316 317 315 308 312 309 302 312 303 304 311 312 306 311 311 312 310 311 312 319 312 307 307 308 312 315 307 310 309 312 307 299 300 305 312 304 300 305 303 303 308 310 316 317 316 315 316 316 316 317 317 317 316 315 315 315 314 314 313 313 312 312 311 310 310 309 308 307 309 310 310 310 310 311 310 309
318 320 318 315 324 326 324 324 323 322 316 313 312 312 311 301 309 313 310 306 305 306 313 310 312 309 314 315 314 311 317 319 319 320 316 309 318 314 308 304 312 304 301 300 310 310 307 303 302 298 302 309 311 315 316 315 315 314 317 317 317 317 316 315 315 315 314 313 313 312 312 312 311 310 309 309 309 308 308 308 309 310 310 309 309 310 311
316 314 317 319 322 327 325 319 319 314 314 316 306 299 304 308 310 308 310 303 303 307 310 310 307 309 311 313 314 314 316 321 318 316 311 306 313 309 307 308 309 302 299 307 313 307 304 296 297 300 307 312 315 317 316 314 314 314 315 317 317 317 316 316 315 315 314 314 313 312 312 311 310 310 310 309 309 309 309 309 308 309 309 311 311 311 311
312 314 315 320 323 320 320 307 313 313 299 298 297 294 303 297 304 304 306 309 315 311 312 316 315 317 320 319 315 316 318 320 314 312 310 307 313 311 307 305 305 297 304 312 308 305 299 295 297 303 311 313 314 315 316 316 315 315 316 318 319 318 317 316 315 314 314 314 313 312 312 310 310 310 310 309 309 308 309 310 310 310 311 311 311 310 311
323 324 320 319 313 314 314 295 313 307 299 301 296 290 298 299 303 305 304 306 310 309 315 309 311 311 310 314 312 318 315 317 315 314 311 314 310 307 305 299 302 308 313 306 305 300 300 304 304 307 314 314 314 315 316 316 316 316 316 318 319 318 317 316 315 314 313 312 312 311 311 310 310 309 309 309 308 307 308 308 310 311 310 309 310 310 311
317 315 314 308 301 308 300 290 310 302 293 299 301 301 299 297 302 304 304 313 311 308 314 314 315 312 309 316 315 316 314 311 318 308 305 309 306 307 303 300 308 309 303 300 302 304 303 302 311 311 312 312 314 315 315 317 317 316 317 318 318 317 316 315 314 313 312 311 310 310 309 310 309 308 308 309 309 309 308 308 309 309 308 308 309 309 311
314 304 302 296 290 297 298 293 297 294 304 306 303 303 304 306 311 308 313 314 311 315 312 314 315 314 313 315 311 309 318 314 308 308 309 308 303 300 307 313 309 301 302 301 299 296 300 306 307 310 313 314 315 316 315 318 318 318 317 316 316 316 315 314 313 312 311 311 310 309 309 309 308 308 308 309 309 308 308 309 309 308 309 308 307 308 309
315 313 307 301 295 298 306 294 298 302 304 305 307 307 308 311 314 319 315 316 315 315 315 319 320 319 312 311 312 312 314 312 306 312 310 303 302 307 311 304 299 300 296 295 298 300 303 305 312 313 314 315 314 315 315 317 316 317 317 317 316 315 315 313 313 311 311 311 310 309 309 308 308 308 308 308 307 308 309 309 308 308 308 307 308 307 308
301 310 309 295 292 296 296 301 306 306 308 310 311 312 313 317 314 313 316 315 317 317 315 315 313 314 311 318 315 309 311 311 306 307 309 304 308 302 296 301 300 302 302 300 300 305 305 311 311 314 313 315 316 314 316 315 315 318 317 315 315 314 313 312 311 311 310 309 308 308 308 308 308 308 307 307 307 307 307 308 309 308 308 308 307 308 307
315 303 299 298 304 303 302 305 305 303 307 310 311 313 313 311 311 315 318 319 317 316 320 316 314 312 309 313 310 309 306 311 300 300 309 304 300 296 297 294 297 296 302 305 305 306 308 310 315 315 316 315 315 314 317 316 316 316 314 314 314 314 313 311 310 310 308 308 308 308 308 308 309 307 307 307 305 306 309 310 309 309 309 308 307 307 307
305 303 309 304 305 306 308 309 307 304 307 309 310 310 313 312 312 316 321 318 319 322 318 315 314 309 312 309 300 305 302 309 307 301 304 302 303 303 301 295 298 299 301 306 308 308 312 314 315 315 315 314 315 315 312 314 316 316 314 314 314 312 311 309 309 308 308 308 308 308 308 308 307 307 307 307 309 310 309 309 308 308 309 309 308 308 308
314 308 306 311 306 306 308 303 301 301 303 307 309 310 312 312 313 315 320 318 323 318 316 309 312 309 303 300 298 295 301 310 306 304 302 300 304 302 300 298 300 306 304 308 310 308 311 313 313 314 312 310 313 316 316 316 316 316 314 313 312 310 309 308 308 307 307 307 308 307 307 307 308 307 308 309 309 308 307 307 308 308 309 309 309 309 309
302 299 304 309 311 309 309 309 309 307 307 310 310 313 314 313 316 321 319 319 316 314 308 311 309 303 298 296 303 306 310 307 301 304 302 305 308 303 303 305 307 307 307 308 309 309 311 314 315 316 316 317 315 315 316 316 314 313 312 310 310 310 308 307 307 307 307 307 307 307 308 308 308 308 309 308 308 307 305 305 307 309 309 309 309 309 309
Wind_Speed
20 20 21 22 22 22 21 21 21 22 25 10 8 8 6 7 7 5 6 8 9 7 8 6 7 8 1 2 8 4 8 6 5 10 8 4 2 8 1 9 7 7 7 2 5 4 3 3 5 10 8 10 7 9 9 5 9 10 4 10 13 12 7 7 11 10 12 12 11 12 10 13 12 11 11 11 12 11 10 7 3 7 4 5 3 5 6
20 20 21 22 22 22 22 20 19 18 18 8 8 6 7 7 7 5 8 6 9 8 8 6 7 5 4 8 1 2 8 6 5 5 3 2 2 3 8 6 3 4 3 6 5 7 1 8 7 1 5 4 6 1 6 3 7 5 10 7 9 8 4 6 7 7 7 6 8 7 6 8 8 7 6 7 6 11 13 11 8 7 6 8 8 3 0
20 20 20 21 22 22 22 20 18 17 15 12 5 5 7 9 6 8 6 7 8 10 6 6 7 1 7 6 7 7 7 1 8 7 6 3 4 3 2 5 4 2 4 4 2 4 1 3 5 7 2 9 6 8 9 1 10 12 11 6 8 7 6 2 6 7 7 5 3 3 2 3 6 6 11 8 10 11 10 9 5 5 4 8 7 8 8
20 20 20 21 22 23 23 22 20 17 14 14 5 5 6 5 5 6 7 6 7 9 9 10 8 5 2 5 2 5 5 6 4 8 3 1 4 3 4 4 5 1 6 3 4 4 6 6 3 7 2 6 3 6 6 3 7 9 6 7 4 6 2 4 6 8 8 7 8 10 8 5 7 8 14 16 17 13 10 9 6 7 7 8 8 13 11
20 20 20 20 22 23 23 23 23 20 15 11 4 5 5 6 6 5 3 5 5 9 8 7 5 4 2 4 1 8 1 4 4 1 7 7 9 2 5 8 4 5 6 5 4 2 4 7 3 4 5 5 2 8 7 5 6 5 5 2 5 4 6 5 8 10 10 8 10 11 10 11 12 12 12 12 14 6 11 10 9 3 8 3 8 12 11
20 20 20 20 21 23 23 24 25 25 19 14 5 6 6 7 3 7 5 7 3 6 5 8 7 6 3 0 3 6 5 4 2 5 1 6 7 9 6 9 3 4 1 7 4 5 4 5 5 5 2 4 2 5 10 6 10 7 5 7 4 5 6 6 6 10 9 13 12 4 7 10 11 11 14 12 11 14 17 16 12 8 6 5 9 8 8
20 20 20 20 21 22 23 25 26 27 28 15 5 5 5 7 6 6 9 9 4 4 8 9 5 4 4 1 6 3 5 2 1 6 4 0 1 2 2 4 3 5 2 2 1 4 4 1 2 7 2 3 5 6 3 4 4 9 7 4 8 3 5 9 10 10 9 10 8 11 14 12 12 13 11 6 12 12 12 8 6 8 10 9 7 15 17
20 20 19 19 21 22 23 24 26 28 32 15 6 7 7 4 6 5 9 10 5 6 6 6 4 1 6 4 4 6 3 2 2 8 5 4 3 5 7 2 3 5 5 4 3 4 2 6 4 6 8 6 9 6 7 8 3 4 5 4 10 6 3 4 9 6 8 9 10 11 11 9 11 11 13 10 7 11 21 20 20 19 15 19 15 19 13
20 20 19 19 20 21 22 23 25 28 27 7 6 3 8 6 6 2 7 8 6 6 8 6 6 1 3 7 2 6 4 3 5 7 2 7 4 1 7 5 5 3 3 2 2 4 8 7 9 12 4 2 5 1 2 4 5 4 6 5 4 3 6 4 6 6 6 9 8 8 7 10 3 16 20 15 10 16 16 15 15 14 12 14 12 13 7
20 20 19 19 19 20 20 21 23 26 25 6 7 5 9 7 8 8 6 7 2 8 4 6 4 3 3 6 2 4 1 2 1 6 5 5 5 8 8 4 8 6 4 2 5 6 4 6 4 4 7 2 6 5 5 5 6 3 4 3 6 5 6 4 5 7 6 5 9 8 9 8 3 11 7 9 8 11 12 13 13 15 15 10 10 7 4
21 20 18 18 18 19 20 20 20 22 16 9 8 7 9 9 9 8 6 8 5 7 6 5 5 3 1 7 3 3 2 4 1 5 4 6 7 2 2 6 5 3 6 9 7 3 5 6 7 6 6 7 8 8 6 9 8 3 5 4 2 4 4 6 2 6 5 8 6 7 6 7 4 6 8 3 8 10 14 12 12 13 12 9 8 7 6
21 20 19 17 17 17 18 18 18 17 15 8 7 8 7 9 8 6 6 8 6 7 6 5 2 5 9 4 6 3 3 5 7 7 3 4 7 3 5 5 5 3 6 4 5 5 5 5 8 8 8 8 9 8 6 7 5 5 5 7 3 3 2 5 3 5 6 4 6 6 10 2 4 6 5 6 6 11 14 15 14 13 13 11 10 9 8
20 19 19 17 16 17 17 17 17 16 16 12 7 7 9 10 7 6 6 5 7 6 8 7 7 6 5 3 6 3 6 5 3 5 4 4 2 4 4 4 3 7 2 3 3 4 6 6 5 4 8 6 6 10 11 9 7 3 5 3 4 4 3 2 5 5 4 6 4 7 3 6 8 5 11 10 6 14 13 11 14 14 11 10 7 7 8
19 19 20 19 16 17 18 17 17 17 16 14 9 8 8 9 7 7 5 5 4 9 7 12 2 6 3 5 2 6 1 1 6 5 3 5 4 3 2 4 7 1 6 2 4 3 5 4 4 5 6 3 3 4 6 6 4 2 5 1 2 3 4 2 6 3 7 5 6 0 4 6 4 3 7 8 7 8 4 3 6 12 12 10 9 9 9
19 19 20 19 16 16 17 17 17 17 17 17 9 9 8 6 6 6 6 5 6 5 4 4 6 2 2 2 1 1 6 3 3 5 4 2 3 3 9 3 0 5 3 5 2 3 5 5 4 3 2 4 4 1 4 5 4 4 6 3 4 6 6 4 3 3 7 3 6 2 0 4 3 4 3 6 8 6 9 7 5 11 14 12 12 8 9
19 19 20 19 17 17 17 18 18 17 17 19 9 7 8 5 6 6 6 5 6 5 4 8 11 5 3 4 5 6 3 5 2 3 5 4 5 1 4 4 2 1 4 3 4 5 5 5 3 3 3 4 1 3 3 6 2 6 2 2 5 3 3 3 5 6 5 6 6 6 2 4 3 4 5 7 6 9 2 5 3 6 12 12 12 10 11
18 18 18 18 18 17 18 17 18 16 15 16 11 8 6 7 7 6 7 5 5 6 2 9 7 4 2 4 0 1 4 2 5 3 4 5 1 4 5 2 3 5 3 4 3 5 4 5 4 3 4 1 1 0 7 5 1 5 5 4 5 6 6 6 6 6 6 5 5 3 4 3 5 9 8 8 8 10 4 7 3 10 10 10 11 11 10
18 18 18 18 18 17 17 17 19 17 16 15 11 7 7 8 6 7 6 6 5 5 4 8 7 4 3 3 7 7 3 2 4 7 4 5 5 6 4 1 5 6 2 6 3 5 5 4 5 2 4 3 2 1 3 1 5 4 6 5 3 1 3 4 6 3 4 3 3 7 5 6 10 11 9 10 10 5 5 3 4 5 8 9 9 9 10
18 18 18 17 18 17 16 17 17 19 18 16 14 8 7 5 5 6 6 5 6 1 12 18 5 5 3 4 6 3 4 6 5 2 4 2 4 7 3 4 6 2 4 5 3 5 5 3 5 2 3 3 6 4 6 4 1 5 2 3 5 4 4 5 4 3 6 4 1 4 5 5 10 12 9 13 9 3 4 1 4 5 7 8 9 9 10
18 17 17 17 17 17 16 15 18 18 17 15 11 6 10 12 8 4 5 4 3 4 9 5 5 5 2 3 2 3 4 7 4 4 4 1 4 10 4 5 6 5 4 2 7 3 3 4 6 4 1 4 4 7 3 1 5 4 3 3 5 6 3 4 6 5 2 4 5 1 1 6 12 13 5 15 5 5 3 3 5 8 9 9 8 9 10
17 17 17 17 16 17 15 17 17 18 18 14 12 7 7 3 2 3 3 5 4 4 4 4 5 7 5 3 3 7 7 8 6 3 3 2 3 3 4 3 5 3 4 5 5 4 2 3 6 4 3 1 2 4 3 5 5 10 8 5 4 6 7 3 4 3 5 5 3 1 3 4 9 10 7 6 8 5 5 4 6 6 7 8 7 8 9
17 16 17 17 17 16 15 17 18 18 18 14 14 7 7 7 8 6 6 5 4 3 1 9 7 4 5 6 4 4 7 7 7 4 5 3 4 1 2 4 4 4 4 4 5 2 5 5 3 5 4 4 2 2 4 3 3 2 2 1 3 9 6 4 3 5 5 2 2 4 2 3 7 7 8 8 8 6 7 6 7 7 7 7 7 8 9
16 16 16 17 16 15 15 17 18 17 17 16 12 5 7 9 8 10 9 6 4 6 8 5 4 2 2 1 3 6 6 3 5 3 4 5 2 4 2 2 4 4 2 4 4 4 4 6 6 6 3 4 2 4 3 4 2 3 2 5 4 3 5 1 3 5 2 6 6 5 3 5 5 7 7 8 7 8 7 9 7 8 7 7 7 8 9
16 16 17 16 16 15 16 17 18 17 16 15 11 7 7 7 9 9 6 5 5 4 5 5 3 6 3 6 3 4 3 5 3 2 1 2 5 0 4 2 3 3 3 3 2 4 4 5 5 3 5 3 4 5 3 4 1 2 4 4 4 5 4 2 2 4 3 1 8 4 6 2 4 5 7 8 6 7 7 7 7 7 9 8 8 8 9
16 16 16 16 16 16 15 17 18 17 15 15 14 9 9 9 6 6 6 4 3 3 4 4 5 5 5 3 3 3 1 1 4 4 4 2 1 3 5 6 5 4 4 3 2 4 2 5 5 5 4 5 4 4 5 4 4 3 3 5 4 2 4 4 3 2 0 5 5 2 4 3 5 5 6 6 6 7 7 6 6 7 8 9 9 8 8
16 15 16 16 16 16 16 16 18 16 16 13 12 7 6 7 8 7 6 5 4 4 4 5 4 3 1 5 1 6 6 3 6 3 5 5 4 6 4 2 4 3 3 2 0 4 5 4 5 4 6 2 3 4 3 3 3 3 3 5 2 4 2 2 2 0 10 9 4 4 3 5 7 6 6 5 5 5 6 8 7 8 9 9 9 8 8
15 15 15 16 15 16 16 16 17 17 15 13 10 7 7 7 7 4 5 5 3 3 5 3 3 5 4 5 6 4 6 1 5 5 7 5 5 5 3 2 2 2 3 3 2 4 3 4 5 3 4 4 3 3 4 1 3 2 2 7 5 3 4 3 2 5 2 4 3 3 4 3 3 4 4 3 2 4 5 5 7 7 8 8 8 7 7
15 14 15 15 15 15 16 17 17 17 14 15 11 8 8 8 6 2 2 4 4 1 4 3 3 7 6 2 3 4 3 2 4 4 4 4 5 5 4 3 2 4 2 2 3 3 4 5 3 3 2 3 3 4 2 3 2 5 4 4 2 3 5 4 4 5 4 5 4 1 1 3 3 1 2 3 4 4 4 5 5 6 6 6 7 7 7
14 14 14 15 13 15 15 17 17 17 15 15 8 9 9 7 7 3 4 2 1 1 2 4 5 8 4 4 3 4 2 1 5 4 4 5 4 4 5 5 4 3 0 1 3 3 4 3 3 4 4 3 3 2 2 5 5 1 6 5 7 7 7 8 5 3 7 5 3 3 2 3 2 3 1 2 4 3 4 5 5 7 7 6 6 6 7
14 14 14 13 14 14 16 16 17 15 15 9 6 5 4 6 4 7 7 4 3 3 3 4 4 3 3 3 8 5 5 4 3 3 4 4 6 5 4 2 1 2 3 4 2 4 1 0 4 3 3 3 3 4 5 4 3 6 7 7 7 7 8 7 6 4 5 4 3 3 2 1 1 3 3 4 5 4 5 5 6 6 6 7 6 5 6
14 13 13 14 14 15 16 16 15 16 14 7 5 4 5 6 3 5 9 6 5 4 2 3 2 6 5 2 1 5 6 6 4 4 4 3 3 2 2 1 2 2 3 3 4 2 1 4 4 3 0 3 2 3 5 6 0 6 6 6 6 5 7 7 4 4 3 4 3 2 1 3 1 2 5 3 3 2 3 4 5 4 5 5 4 4 4
13 13 12 14 15 16 16 15 15 13 8 7 5 3 3 4 4 6 7 6 6 5 5 4 3 4 4 4 4 3 4 5 5 3 2 4 4 0 2 4 1 2 2 3 2 1 5 2 2 4 3 4 1 3 6 6 6 7 7 6 5 6 5 6 5 5 3 3 0 3 5 4 4 3 3 1 5 5 2 5 5 4 3 3 4 4 4
13 12 13 15 16 17 16 15 13 9 7 11 17 18 18 19 17 11 6 6 4 4 4 4 4 2 3 3 3 8 4 4 4 4 4 1 1 3 3 2 1 1 3 3 2 3 4 3 2 3 6 5 3 3 5 4 6 9 7 7 5 5 6 4 5 4 5 3 2 2 1 3 4 3 2 2 4 6 5 4 5 5 3 3 5 5 5
13 12 14 15 16 17 16 15 15 14 13 7 5 7 6 10 8 8 6 3 4 5 5 4 3 2 3 4 6 6 6 5 5 5 4 4 0 2 2 2 3 3 6 5 1 4 2 3 5 3 6 5 4 4 5 4 9 8 7 7 6 6 6 5 4 4 4 4 4 4 6 6 4 3 3 4 3 2 1 1 3 7 6 5 5 6 6
12 12 13 16 17 16 17 15 8 5 5 6 4 6 6 5 3 1 4 4 3 5 4 4 2 2 3 5 5 3 6 5 5 5 5 4 3 4 3 5 4 4 5 2 4 5 4 5 3 5 7 5 6 4 5 4 7 7 6 7 7 6 6 6 5 5 6 5 4 4 4 6 4 6 4 1 3 2 2 4 4 4 6 5 5 5 6
12 13 15 16 17 15 9 7 5 5 5 5 1 4 6 7 7 5 4 4 4 3 6 5 6 5 3 4 3 3 1 7 5 2 3 4 5 3 3 3 6 3 3 3 5 3 6 3 2 6 4 4 5 5 6 5 6 7 7 7 7 6 6 5 6 6 5 4 4 5 3 1 4 4 3 4 6 3 3 2 2 3 4 4 5 5 5
12 13 15 17 10 4 5 5 5 7 2 4 3 2 4 5 3 4 4 4 4 4 4 3 5 6 6 4 2 4 4 7 6 6 4 6 4 5 4 4 6 2 2 6 6 7 0 4 5 7 6 5 6 7 6 5 6 7 7 7 8 6 6 5 4 7 6 6 4 4 4 3 3 2 1 2 3 3 2 3 4 4 5 4 5 4 5
11 13 8 5 5 5 4 5 3 4 7 6 3 2 4 4 4 5 5 5 5 5 6 5 7 2 4 7 5 4 3 5 6 6 7 5 4 5 4 5 4 3 6 5 6 5 4 3 5 7 8 7 1 7 8 7 6 6 5 6 8 7 6 6 7 7 8 7 6 5 4 8 3 1 3 4 3 3 2 3 3 4 3 4 4 5 5
9 7 5 5 4 4 1 3 3 2 3 2 4 3 4 3 3 3 5 5 4 7 6 7 8 7 7 5 3 4 5 1 4 5 5 5 4 5 4 6 3 3 4 6 2 4 7 6 7 8 9 7 7 10 10 8 7 6 6 6 8 7 7 7 8 8 7 5 1 1 7 5 4 4 3 3 2 0 3 4 5 5 4 5 5 5 5
5 5 4 4 4 3 1 3 2 3 4 4 3 3 3 4 4 3 4 5 5 6 5 9 8 8 8 7 5 4 5 6 6 5 5 2 3 3 2 4 2 3 4 8 3 6 6 7 6 6 8 8 7 12 10 10 8 7 7 8 9 9 8 7 7 6 7 4 5 3 3 3 2 4 3 3 5 5 4 4 5 5 6 6 6 5 6
6 5 5 1 3 4 4 5 4 4 4 3 3 3 2 3 6 3 2 6 6 5 6 6 5 7 7 6 5 4 6 5 3 2 3 3 1 3 6 4 1 6 5 6 4 4 5 7 7 6 7 3 8 12 11 10 9 10 8 8 9 8 9 8 7 6 7 6 4 2 1 3 3 2 1 3 4 5 5 5 4 5 5 6 6 6 5
4 4 5 5 6 6 2 3 3 3 2 2 3 4 3 3 4 5 5 5 6 5 7 7 8 7 5 7 6 6 5 4 3 4 4 6 6 5 5 5 4 5 5 1 4 3 4 4 5 8 5 7 13 11 11 10 10 11 11 10 9 8 10 8 7 7 7 4 4 4 3 5 1 2 2 2 3 4 4 5 5 5 5 5 5 5 5
15 9 6 5 3 3 2 2 4 2 1 1 1 2 3 3 6 6 6 5 2 4 3 4 2 2 1 3 5 1 3 3 4 4 4 5 3 2 4 5 5 6 7 3 5 6 6 5 8 8 3 10 12 11 10 10 10 10 10 9 9 8 8 8 8 7 6 5 5 5 4 3 2 2 3 4 3 5 4 5 5 4 4 4 5 6 6
7 5 4 3 3 3 2 2 3 1 1 1 2 2 6 7 6 6 6 6 5 6 4 6 6 5 5 5 3 3 3 4 2 3 5 3 3 5 4 4 7 5 2 6 6 8 8 7 6 9 4 12 9 10 9 9 9 9 9 10 10 9 9 9 8 7 7 5 3 1 2 1 3 4 2 3 3 4 4 4 3 3 4 5 5 5 5
3 4 3 2 0 1 1 1 3 3 3 4 4 7 6 7 4 7 5 1 5 4 7 5 4 6 0 3 3 4 2 2 3 5 4 3 6 4 4 4 5 4 6 8 8 8 6 6 1 2 9 11 11 11 10 9 10 10 10 11 10 10 10 9 9 7 5 3 4 4 5 6 4 1 3 4 2 3 3 4 5 5 5 6 6 6 6
5 3 2 1 2 2 1 1 1 3 5 6 6 7 6 6 5 6 2 4 3 2 2 4 4 4 5 1 1 1 4 2 1 3 4 3 5 5 3 2 2 4 7 8 8 5 6 5 6 4 9 3 8 8 7 7 8 9 11 10 11 11 10 9 8 8 6 5 3 5 5 2 1 3 4 5 6 4 4 6 5 5 4 5 7 7 7
5 3 1 1 2 2 4 3 6 6 5 7 8 8 6 4 7 6 3 1 3 3 4 7 9 4 1 5 3 3 2 0 3 1 3 2 3 3 2 2 6 5 7 9 10 7 2 3 5 1 7 6 4 4 6 8 8 10 10 10 10 11 10 9 8 6 5 8 8 5 3 3 3 4 3 3 2 5 5 5 6 7 6 6 6 7 7
3 2 3 2 3 2 6 8 7 8 8 7 4 5 5 1 3 4 2 3 3 0 1 5 6 4 4 2 3 3 1 1 2 0 2 1 3 4 2 4 7 6 5 4 6 3 2 3 5 6 4 3 6 6 5 5 7 10 10 10 10 10 9 9 7 8 7 6 6 2 2 3 4 2 3 6 5 5 5 5 5 5 6 5 6 6 7
4 1 2 2 4 5 7 8 8 9 7 7 6 5 4 4 5 3 2 2 1 5 7 3 3 1 1 2 3 3 3 3 3 2 4 5 5 4 3 4 6 7 3 2 2 4 3 3 3 3 4 3 5 2 4 7 9 8 9 8 8 8 7 7 7 4 3 2 1 2 5 4 4 5 4 3 6 5 2 4 5 6 5 5 6 7 7
3 2 4 4 6 7 8 4 4 7 4 5 5 5 3 4 4 3 3 3 2 6 5 4 3 3 1 2 2 3 3 3 3 1 5 7 5 4 3 8 3 3 3 3 4 5 6 4 3 4 5 5 6 4 2 1 4 5 6 7 7 6 6 5 4 4 3 3 4 5 4 4 4 5 5 3 4 5 4 4 5 7 6 6 5 5 5
4 5 5 7 9 6 5 7 5 5 5 5 4 3 3 3 3 3 5 4 3 5 7 3 1 1 2 2 1 2 3 3 4 4 5 5 3 3 3 4 3 2 4 4 4 3 4 5 4 2 5 3 2 3 2 4 3 3 4 5 5 5 4 3 5 5 6 6 5 4 4 4 4 4 2 3 3 3 4 5 8 6 3 4 3 4 6
2 3 5 7 9 10 9 8 8 7 5 1 2 3 1 5 4 4 4 3 2 3 1 2 2 1 1 3 3 3 3 1 3 4 7 5 3 3 3 1 2 3 2 1 3 2 2 2 3 1 3 4 5 3 3 4 4 3 4 6 6 6 5 5 5 5 7 5 3 2 2 4 2 3 3 3 4 5 5 5 3 5 5 5 4 5 5
Wind_Direction
344 344 344 345 345 345 346 348 349 353 348 352 0 312 246 228 244 86 187 155 227 221 253 264 256 258 343 45 251 142 200 278 34 321 16 322 354 332 277 10 359 350 335 323 273 135 307 73 193 148 184 72 1 71 292 30 260 246 349 348 20 327 254 276 272 281 306 305 285 171 203 237 248 220 223 201 212 233 265 291 290 294 309 260 270 251 101
344 343 344 345 344 344 345 347 353 355 8 345 307 284 262 258 267 214 202 162 227 242 249 250 265 265 62 270 280 124 347 311 25 332 111 286 34 328 334 135 162 343 263 295 331 5 256 90 250 124 115 123 27 48 300 267 284 289 36 319 14 292 207 257 298 293 267 275 269 209 179 234 234 240 211 265 252 223 254 267 274 262 273 315 300 45 15
344 344 344 345 344 344 343 346 350 356 354 347 309 309 310 299 285 268 158 212 220 234 214 251 283 306 255 230 250 205 220 321 318 318 11 300 349 331 240 347 304 211 338 304 337 236 195 267 51 339 35 98 240 110 289 101 310 27 38 337 308 296 349 297 258 256 236 237 270 95 51 300 279 298 285 223 233 246 222 234 250 273 330 310 279 135 159
345 344 344 344 344 343 342 343 347 350 355 340 279 279 294 246 280 249 188 181 207 241 279 283 264 270 310 265 329 284 176 141 179 240 260 341 311 194 318 176 288 26 211 207 224 285 94 291 121 255 143 98 197 57 275 267 360 33 12 318 269 297 339 267 291 294 296 347 330 287 259 252 261 201 241 267 244 199 261 292 266 233 212 218 35 108 124
345 345 344 344 345 344 343 342 342 345 346 349 292 266 238 299 268 277 259 185 196 251 212 227 249 243 251 271 253 251 117 75 167 52 297 125 306 39 299 10 280 17 315 329 306 259 236 170 36 238 252 307 90 146 283 254 101 117 270 234 296 260 286 248 243 256 273 286 277 309 309 305 298 278 225 241 298 260 217 216 244 319 330 154 81 102 110
346 345 345 345 346 346 345 344 342 340 339 337 257 287 233 250 319 302 343 311 285 237 209 260 255 75 188 123 234 272 273 218 166 184 255 284 167 301 102 262 108 258 318 4 317 9 351 4 264 186 208 305 278 267 217 212 130 213 237 200 254 340 293 307 293 268 256 240 233 246 281 280 287 281 280 259 237 253 263 262 235 237 263 288 100 100 110
345 346 345 347 348 347 347 346 344 341 333 330 225 284 294 291 317 306 328 249 253 310 324 283 276 213 254 154 233 268 273 266 208 342 105 72 49 207 352 275 30 323 67 209 67 78 313 286 354 347 352 232 304 276 214 251 319 306 306 37 54 1 288 311 308 299 287 294 264 263 249 235 238 255 279 303 323 320 266 257 328 306 312 315 306 68 61
342 347 345 347 348 349 350 349 348 344 337 322 214 250 288 330 336 339 310 303 264 284 269 285 283 173 57 286 237 319 251 50 268 211 273 359 351 90 264 119 290 21 42 113 251 109 44 34 359 331 294 39 348 313 317 324 325 309 311 327 85 340 294 308 285 295 278 278 286 267 239 239 245 258 265 281 293 9 17 21 17 16 17 7 32 65 61
338 346 347 347 349 351 352 353 354 346 343 333 334 1 20 331 303 328 288 294 311 279 240 233 239 229 161 235 171 248 240 14 358 41 343 304 349 346 346 41 48 260 22 52 92 129 142 170 190 229 246 131 237 274 1 273 268 261 276 251 7 303 310 301 285 281 261 243 252 276 269 245 271 36 24 0 44 30 14 15 14 20 0 12 16 56 34
336 344 348 350 351 353 353 358 357 355 334 341 338 346 7 341 339 301 286 278 320 281 268 254 273 244 37 343 100 258 318 334 163 253 140 296 289 338 342 16 285 108 255 196 60 43 35 1 25 344 319 277 278 251 275 344 341 349 338 55 266 281 312 299 308 283 271 291 235 229 248 281 202 20 18 5 34 54 34 27 10 17 2 17 19 41 57
339 341 349 351 352 353 355 358 2 2 357 18 347 332 349 8 332 327 300 283 261 262 273 254 264 37 268 198 280 196 288 73 89 322 59 292 120 310 269 295 272 50 17 48 42 333 323 302 298 313 282 260 246 254 243 223 229 305 326 353 233 280 275 280 346 267 305 282 280 276 287 246 39 287 24 326 330 52 49 32 13 11 6 22 16 49 22
339 340 346 348 348 353 355 357 1 7 5 344 311 286 316 349 321 297 279 262 280 271 264 294 308 131 261 200 270 286 256 232 145 212 286 34 11 302 268 202 266 44 25 327 283 297 339 258 249 232 258 282 294 295 288 297 293 133 217 239 314 294 301 281 327 282 268 309 278 282 236 38 107 29 15 9 29 69 73 64 24 30 21 18 22 358 17
339 339 342 344 348 353 354 354 359 359 2 347 317 296 321 330 320 320 301 290 271 319 320 272 197 246 240 169 234 162 36 48 27 11 358 330 90 249 47 8 253 42 278 299 301 257 255 285 254 289 285 267 241 249 249 226 227 211 293 348 19 315 286 318 243 268 267 260 237 236 71 144 64 15 29 360 17 110 105 75 33 28 36 18 8 11 353
337 338 339 344 348 352 352 354 355 355 355 350 320 300 301 310 350 325 328 301 320 311 278 298 193 227 210 210 159 76 254 260 52 298 205 233 202 63 144 307 8 316 282 67 296 315 259 214 223 214 182 234 226 260 242 260 229 231 239 194 159 321 341 245 280 224 258 236 245 76 159 158 88 68 7 20 10 354 29 100 44 19 24 18 354 20 3
337 337 338 341 347 351 352 354 353 352 351 343 311 293 295 324 0 318 308 283 259 244 280 323 300 136 273 65 174 196 239 106 240 178 17 28 277 62 22 26 34 324 34 294 214 210 274 298 267 232 179 221 210 271 129 237 141 181 314 304 246 214 249 36 331 325 288 286 294 149 283 224 30 306 14 324 4 334 104 127 123 23 12 12 2 25 9
337 338 337 341 348 349 350 354 353 351 351 344 324 322 300 335 346 307 300 293 294 272 270 277 289 248 187 181 193 249 319 237 199 148 177 236 340 233 170 283 18 352 251 196 304 296 271 259 264 272 232 252 335 283 22 310 181 130 144 273 284 253 205 268 273 264 279 265 241 255 250 75 150 24 348 359 342 342 308 185 132 4 349 12 359 10 14
335 337 338 339 346 347 348 353 352 351 349 357 336 320 305 340 340 335 317 290 228 265 76 292 322 337 253 153 139 268 240 7 311 77 6 341 298 351 127 243 101 246 356 281 208 244 235 222 246 265 267 23 266 348 154 226 246 195 146 237 243 264 236 213 215 244 243 283 288 316 77 67 10 358 339 358 339 313 307 264 67 322 359 12 4 21 22
333 335 337 337 340 344 347 352 353 349 347 348 334 303 295 302 307 324 302 282 267 288 341 260 256 340 284 2 53 334 302 245 223 139 146 220 269 242 85 35 239 125 245 245 241 237 247 269 259 218 306 57 72 335 211 335 277 83 301 332 346 309 288 273 257 336 285 202 276 88 63 16 351 344 331 353 340 322 265 335 60 315 13 6 22 21 17
332 333 334 335 336 340 344 348 351 347 346 346 334 290 247 259 317 326 303 283 286 21 266 281 35 161 345 69 126 247 344 2 327 347 205 160 318 350 326 302 324 202 160 255 273 262 252 287 311 298 162 317 288 264 85 215 248 82 317 287 245 234 298 242 278 44 321 335 107 114 107 18 340 330 13 359 298 278 63 167 271 11 23 25 31 20 25
330 331 330 332 334 339 344 348 346 348 345 348 345 304 292 293 279 320 349 340 330 282 287 258 219 253 193 324 353 232 203 202 206 240 37 248 228 296 260 224 169 291 217 218 247 261 268 75 280 269 174 79 323 0 286 154 60 342 27 19 297 32 280 330 36 333 252 89 61 44 95 38 7 341 29 20 31 72 51 331 46 25 24 18 33 29 26
329 328 327 329 333 337 342 343 344 345 344 344 343 315 318 293 5 30 343 328 290 301 286 336 330 28 23 104 34 20 22 19 17 345 112 230 60 246 283 63 314 309 341 336 10 323 341 101 270 269 90 140 48 272 36 18 57 39 341 346 324 68 281 6 75 42 319 1 12 24 38 334 34 35 54 58 59 54 37 357 53 38 27 15 25 28 36
327 327 326 328 332 335 339 340 340 342 341 343 329 293 277 320 343 353 332 282 284 300 238 288 5 53 49 29 31 9 358 9 39 351 329 348 171 302 42 182 270 347 16 338 307 300 355 331 287 297 347 7 182 313 136 221 202 195 132 245 250 24 37 13 338 14 9 40 95 115 106 343 83 83 90 81 68 46 39 36 44 33 36 16 24 20 27
326 326 327 326 329 334 338 337 338 338 338 341 340 316 311 315 327 328 303 289 218 231 260 253 261 351 290 340 313 341 2 18 341 33 357 322 334 205 314 26 85 351 331 7 358 335 324 333 344 356 329 106 325 312 250 355 6 166 220 100 68 92 39 330 293 49 51 58 87 142 130 103 81 92 75 69 50 41 38 37 37 37 32 25 22 8 28
325 324 324 324 326 332 334 335 334 334 333 334 332 314 305 310 304 312 326 277 287 279 257 248 204 236 207 102 61 114 168 99 355 6 303 334 332 263 158 93 9 260 64 17 35 303 347 319 325 360 295 56 323 281 313 54 243 346 291 80 357 42 325 276 275 141 257 132 344 353 113 88 82 70 80 69 42 41 31 40 36 35 33 25 24 11 25
320 320 322 323 326 330 331 332 331 330 329 329 327 284 261 269 280 342 329 323 268 295 262 171 228 61 87 39 171 127 49 206 156 197 157 192 282 350 45 52 45 27 36 334 276 268 248 293 278 246 281 65 303 298 24 307 98 0 316 94 225 176 357 285 313 211 281 98 114 75 25 64 42 61 59 47 44 37 24 29 30 32 32 24 17 6 32
316 317 318 322 325 328 328 329 329 327 324 326 320 304 310 312 316 300 288 269 259 257 248 238 134 210 202 221 168 33 308 256 83 35 47 89 51 63 95 90 51 335 339 304 348 259 301 252 255 275 287 53 14 295 14 37 337 146 276 134 221 78 267 303 120 208 102 125 158 162 209 86 58 61 39 28 25 18 10 1 14 22 16 11 14 7 19
312 314 314 320 323 325 326 325 327 325 321 322 315 295 282 285 292 317 353 3 319 193 247 302 293 176 211 231 85 229 254 204 154 178 185 162 148 134 123 115 151 184 231 204 160 299 229 276 275 318 7 46 332 326 323 45 308 303 273 126 197 191 257 332 172 245 149 135 118 51 219 184 121 80 68 46 26 348 10 11 11 19 9 7 358 6 4
309 312 314 316 320 321 324 324 324 324 320 318 299 275 261 267 278 347 353 347 318 7 341 303 311 313 291 161 180 208 192 230 66 68 79 109 133 119 118 140 249 226 177 246 200 202 229 250 337 19 212 40 304 244 181 313 349 262 268 77 27 57 33 345 358 360 94 107 91 47 55 140 60 83 46 2 36 19 350 9 3 24 12 0 359 358 5
307 308 310 313 314 318 321 323 323 323 323 315 292 280 260 243 251 104 37 5 297 209 267 303 298 250 254 111 187 179 256 19 172 151 109 103 88 80 53 25 347 33 92 233 291 301 288 357 68 343 33 29 291 284 178 227 214 242 86 73 73 78 74 71 63 96 106 87 89 53 25 50 123 63 47 69 63 19 349 357 4 14 10 1 350 357 353
303 306 308 310 313 312 317 320 322 320 323 314 291 270 239 154 87 54 11 347 318 282 259 255 244 155 163 226 215 141 186 188 128 128 155 99 71 67 89 178 138 340 336 331 336 261 306 329 85 97 89 61 293 326 275 279 247 110 112 93 92 87 73 67 69 25 80 88 91 87 69 57 99 151 77 56 65 20 3 358 12 2 353 357 338 343 346
301 303 306 307 307 311 312 318 319 320 308 291 288 252 200 184 105 43 19 339 333 286 287 274 267 306 246 115 188 181 202 160 170 159 105 92 98 131 122 256 79 276 254 176 221 345 24 233 155 118 199 62 331 268 286 293 191 133 126 114 101 100 95 90 83 100 107 97 88 93 219 160 118 172 138 100 232 190 32 348 13 17 7 323 337 337 347
298 301 301 303 304 306 309 310 315 317 300 276 292 336 13 358 1 338 333 310 299 258 236 230 261 233 261 153 236 254 197 167 179 128 125 214 155 167 143 283 78 85 337 302 330 312 245 32 243 139 204 117 255 262 274 260 276 127 124 120 104 99 117 114 108 100 108 104 154 193 192 117 51 2 73 29 10 11 352 11 23 0 0 347 359 360 357
297 299 299 301 303 304 305 304 298 298 292 302 299 275 265 267 273 276 281 288 259 243 234 228 247 42 259 320 262 217 218 174 201 201 157 99 131 228 202 146 178 164 84 283 196 255 84 231 213 229 120 128 218 251 252 256 95 130 138 126 129 131 123 121 110 92 100 94 58 5 81 123 123 98 62 24 61 13 16 17 357 333 39 17 32 23 19
294 296 298 300 301 303 301 299 294 284 268 260 262 206 198 203 233 243 274 282 265 236 233 253 277 223 317 334 258 173 192 207 201 194 190 150 123 213 227 192 186 234 164 239 69 278 192 254 248 147 121 201 219 272 260 120 143 137 140 149 142 139 130 133 142 148 141 122 96 78 103 109 123 97 103 115 148 134 47 339 2 356 2 20 31 16 13
294 296 300 301 300 299 298 289 291 240 239 242 247 83 88 157 239 249 216 287 232 197 214 214 167 281 228 217 257 236 185 219 222 176 234 139 175 238 172 241 129 247 136 268 275 258 247 210 248 231 224 170 195 206 243 153 147 147 159 145 160 152 153 155 156 159 136 116 146 141 161 137 174 191 196 141 58 138 213 345 27 350 355 356 9 5 4
294 298 300 299 297 289 278 240 228 252 234 249 75 117 150 195 203 231 243 264 277 267 216 206 212 194 195 263 242 112 285 214 227 170 218 150 200 211 264 249 238 208 86 199 262 202 235 120 161 245 216 184 205 199 218 228 176 165 171 167 157 179 171 170 158 155 135 158 176 124 103 178 202 176 155 202 216 258 16 314 304 8 333 347 347 346 345
296 301 300 290 275 217 240 239 191 224 282 50 49 104 224 256 220 239 214 227 199 226 274 290 259 214 190 163 200 285 270 229 181 205 207 205 209 159 208 196 243 119 191 222 231 242 281 82 232 259 253 228 222 193 202 176 163 167 184 173 159 176 174 181 158 156 148 165 187 166 190 216 217 105 206 263 360 24 313 315 359 337 319 331 338 335 340
303 303 289 254 212 235 217 216 201 91 97 79 92 255 195 210 215 183 188 218 181 177 229 228 245 241 143 199 214 187 226 249 218 199 201 207 229 196 181 239 226 197 242 245 227 192 148 206 228 249 255 258 177 139 144 152 163 165 171 165 165 177 173 182 175 172 187 174 179 181 209 223 217 257 233 251 231 245 297 317 298 274 294 309 329 332 327
283 265 241 241 242 224 254 101 61 358 286 173 221 255 197 214 231 201 196 206 173 209 215 226 236 229 230 204 189 197 205 135 254 237 241 139 215 190 174 239 150 229 256 250 159 154 218 218 233 235 247 223 174 160 158 162 166 166 171 167 166 177 171 191 180 193 196 206 360 142 200 209 206 234 244 264 150 244 284 271 268 280 281 294 288 303 314
230 231 219 207 218 258 13 118 187 199 216 227 199 261 221 202 217 223 187 199 206 238 200 223 223 236 230 232 173 214 230 220 223 180 228 177 151 284 85 254 168 215 243 254 194 177 249 249 226 227 243 242 213 154 157 161 168 165 168 173 170 178 177 190 181 198 205 189 134 164 136 167 181 228 248 304 297 285 274 272 296 311 299 302 319 308 290
217 240 233 201 43 301 219 157 186 223 223 220 216 208 248 219 217 230 197 230 225 225 201 247 193 223 202 218 224 215 169 243 288 330 258 226 301 228 211 214 41 264 253 251 125 190 229 250 253 246 264 166 145 147 156 163 170 165 170 173 172 176 178 182 183 183 198 197 150 147 314 35 61 62 294 292 322 316 301 301 307 306 304 296 291 295 306
349 316 333 313 256 255 234 177 216 202 232 244 248 213 211 242 210 208 232 241 212 218 194 200 223 217 213 207 209 202 176 197 267 213 218 233 159 222 249 241 198 249 259 114 133 230 247 244 243 252 241 125 133 148 154 164 165 169 170 174 172 172 173 176 170 170 190 187 137 131 151 189 190 57 7 305 268 268 295 302 295 289 285 293 289 278 281
292 256 243 261 237 208 204 215 170 228 191 190 203 290 244 233 233 230 197 226 286 265 140 178 256 161 199 176 195 125 42 167 228 226 234 225 127 250 255 245 239 240 249 243 218 242 234 244 253 252 215 137 151 156 160 161 162 168 165 169 162 171 168 165 167 165 174 168 185 192 195 174 208 242 261 264 250 264 253 250 250 267 285 306 314 312 309
259 245 218 231 215 173 200 229 169 103 354 226 183 221 211 224 204 203 231 219 195 215 175 196 186 198 202 192 215 110 187 175 251 264 244 230 220 225 227 239 234 265 291 250 244 250 256 265 286 293 141 130 154 153 160 158 160 158 161 161 162 166 164 154 167 174 157 139 164 77 346 349 282 269 321 12 312 275 277 278 295 301 294 284 279 293 312
223 192 224 198 352 60 60 325 245 193 219 215 238 244 216 224 208 201 236 128 168 234 151 210 184 192 219 22 237 180 205 282 118 229 240 205 246 232 255 274 274 246 235 254 256 252 243 243 72 21 129 148 149 154 162 158 158 165 160 157 165 169 162 169 164 186 198 158 196 166 217 213 215 167 232 240 259 290 298 286 270 266 280 299 310 303 294
207 177 166 129 358 279 222 240 175 228 239 228 222 227 248 267 12 331 141 131 215 154 132 228 191 187 116 43 13 38 7 8 246 254 291 287 273 238 200 310 347 283 272 262 256 266 286 6 41 26 322 302 151 153 149 150 163 163 158 167 167 167 163 165 165 200 171 197 219 232 243 73 130 202 232 230 235 234 243 257 291 309 303 283 277 291 305
267 229 204 266 256 211 216 236 218 222 235 215 224 240 243 279 122 188 281 246 218 186 158 75 40 345 186 165 166 161 151 61 235 11 11 273 245 329 307 282 257 243 253 254 261 267 56 340 313 339 191 199 180 134 149 153 166 175 172 163 163 164 166 173 183 189 185 193 205 197 92 137 210 222 246 304 284 249 258 272 270 277 297 307 310 304 307
241 232 237 213 233 215 218 227 243 240 238 263 265 251 279 17 250 236 168 234 291 40 168 133 128 168 173 96 280 256 132 161 248 207 105 33 274 250 263 243 247 250 224 251 263 84 109 358 357 30 7 352 110 143 152 147 200 172 158 164 167 169 175 176 167 200 223 101 86 91 148 204 224 250 230 236 259 290 289 285 289 278 275 292 299 300 295
293 296 226 221 238 239 232 217 218 235 231 226 232 228 195 228 243 228 170 247 207 79 66 73 96 216 217 81 262 212 223 178 236 218 144 199 232 221 207 250 250 253 284 340 14 43 29 8 23 61 74 348 271 100 246 200 164 160 155 162 175 165 174 194 201 184 111 114 113 149 214 218 235 259 275 267 251 249 325 358 330 324 308 294 288 290 290
230 234 254 261 266 260 257 269 283 270 230 227 215 226 198 238 223 185 140 220 148 92 83 88 134 251 194 192 227 250 262 153 227 210 242 244 254 243 235 254 260 313 343 41 46 31 20 5 12 25 19 350 10 9 140 109 125 127 151 163 158 169 191 190 170 141 122 99 172 199 206 237 238 232 239 311 356 7 0 298 291 280 278 278 290 305 320
255 264 251 244 254 274 308 274 246 283 248 204 221 233 245 240 263 229 151 206 159 181 165 174 88 285 221 205 254 245 250 170 216 226 255 237 194 233 238 250 317 61 111 71 67 40 31 28 25 49 115 104 332 303 66 87 73 112 157 150 155 145 156 173 153 149 150 178 179 236 248 236 228 243 280 284 292 317 304 286 262 268 346 342 322 305 295
246 239 247 232 229 248 256 269 283 280 299 350 270 285 209 236 176 73 61 265 121 240 148 100 194 175 229 234 238 290 328 72 281 254 229 214 163 237 247 250 129 83 71 141 177 179 194 189 220 115 67 107 131 178 160 140 155 184 169 155 157 140 146 150 159 163 182 207 201 174 200 229 240 279 277 293 278 271 272 277 331 350 328 323 315 300 289